Regional Weather Roundup
Issued by NWS Midland/Odessa, TX

Skip options and go directly to product.
Home | Oldest Version | Previous Version | Current Version | All | Graphics & Text | Save Text | Print | Product List | Glossary On

Skip product version selection by date and time.   
813
ASUS44 KMAF 311710
RWRMAF
MIDLAND AREA WEATHER ROUNDUP
NATIONAL WEATHER SERVICE MIDLAND TX
1200 PM CDT FRI OCT 31 2014

...IN SOUTHWEST TEXAS AND SOUTHEAST NEW MEXICO...

CITY           SKY/WX    TMP DP  RH WIND       PRES   REMARKS
ALPINE         CLOUDY    64  45  51 E7        30.47S
ANDREWS        FAIR      61  33  35 E12G21    30.43S
ARTESIA        NOT AVBL
BIG SPRING     SUNNY     64  34  33 NE13G18   30.45S
CARLSBAD       PTSUNNY   60  36  40 VRB5      30.42F
DRYDEN         NOT AVBL
FORT STOCKTON  CLOUDY    65  34  31 E12       30.40S
GUAD PASS      SUNNY     56  32  40 E36G43    30.41F
HOBBS          SUNNY     59  32  36 E12G17    30.44F
MARFA          MOSUNNY   61  48  63 NE16G23   30.43S
MIDLAND AIRPK  SUNNY     63  34  33 E16       30.43S
MIDLAND INTL   SUNNY     63  35  35 E14       30.42R
ODESSA         SUNNY     63  33  32 E16       30.42S
PECOS          PTSUNNY   66  38  35 E10G21    30.40F
PRESIDIO       CLOUDY    69  53  55 NE16G22   30.33R
SEMINOLE       SUNNY     61  33  34 E14       30.45S
SNYDER         SUNNY     58  37  44 NE13      30.44S
WINK           CLOUDY    66  33  29 E14G21    30.39F
$$
...OTHER STATIONS IN TEXAS...

CITY           SKY/WX    TMP DP  RH WIND       PRES   REMARKS
ABILENE        SUNNY     63  34  33 NE12      30.41R
AMARILLO       SUNNY     52  30  43 E7        30.47F
AUSTIN         MOSUNNY   72  45  37 N20G26    30.29R
BROWNSVILLE    CLOUDY    84  69  60 NW8       30.15R
CORPUS CHRISTI CLOUDY    70  64  81 N13       30.22R
DALLAS FTW     SUNNY     63  42  46 NE17      30.34R
DEL RIO        PTSUNNY   75  46  35 E8        30.30S
EL PASO        MOSUNNY   66  36  32 E15       30.33F
HOUSTON INT    MOSUNNY   74  48  39 N13       30.21R
LUBBOCK        MOSUNNY   60  33  36 E10G18    30.44S
SAN ANGELO     SUNNY     68  35  29 NE14      30.39S
SAN ANTONIO    MOSUNNY   73  47  39 NE14      30.28F
WACO           SUNNY     67  42  40 N15       30.32S
WICHITA FALLS  NOT AVBL
$$
...OTHER LOCATIONS IN NEW MEXICO...

CITY           SKY/WX    TMP DP  RH WIND       PRES   REMARKS
ALAMAGORDO     NOT AVBL
ALBUQUERQUE    MOSUNNY   61  29  29 E15       30.37F
CANNON AFB     NOT AVBL
CLOVIS         SUNNY     55  30  38 SE10G18   30.49S
HOLLOMAN AFB   MOSUNNY   64  38  38 CALM      30.34S
ROSWELL        SUNNY     62  34  35 S8        30.44S
RUIDOSO        SUNNY     52  28  40 SE14      30.49F
SANTA FE       PTSUNNY   54  27  35 SE21G28   30.42F
TRUTH OR CONSE MOSUNNY   62  33  33 NE5       30.35S
TUCUMCARI      SUNNY     55  29  36 VRB7      30.46F
$$

USA.gov is the U.S. government's official web portal to all federal, state and local government web resources and services.